Showing default

COSMOS 2269, 23000

Orbit data source: Space-Track

COSMOS 2269, 23000 is a payload satellite owned by VKS (CIS) in LEO that was launched on Sat, 12 Feb 1994 UTC via a TSIKLON-3 launch vehicle from the Plesetsk Missile And Space Complex (PKMTR). Payload-class satellites include a variety of spacecraft equipped with specific instruments for various scientific and technological missions. These include communications satellites like Starlink; space stations such as the ISS; scientific satellites like the Hubble; Earth observation satellites from companies like Planet Labs, Umbra, and HawkEye 360; GPS; miniature CubeSats for education and research; and military/defense satellites.

Loading next visibility...
Identifier
23000, 1994-011B
Orbit
LEO
Country
Flag of CISCIS
Related business
Manufacturer
NPO PM
Mission
Defense Communications
Bus & Motor
STRELA-3, Unknown motor
Mass
225 kg wet, 225 kg dry
Launch date (UTC)
1994-02-12 (32 years ago)
Launch vehicle
TSIKLON-3
Launch site
Plesetsk Missile And Space Complex (PKMTR)
Object type
Payload
Rocket body
Debris
Shape & HBR
Cyl, 0.8 m
Radar Cross Section
1.257 m², Large (>1 m²)

Expand to show TLE details & history
Last TLE update: 23 hours ago

TLE from 23 hours ago
0 COSMOS 2269
1 23000U 94011B   25309.86416543  .00000008  00000-0 -13100-4 0  9994
2 23000  82.5642 103.7280 0006643 342.6231 171.4860 12.61936511461503
Epoch: 2025-11-05T20:44Z
TLE epoch observation values (Epoch: 2025-11-05T20:44:23.893Z)
Latitude
25.67529°
Longitude
-76.28173°
Altitude
1,423.051 km
Speed
7.149 km/s
True Right ascension
18h 40m 35s
True Declination
25° 33' 10"
Sunlit
Object was in daylight at epoch
Visualization orbit readout
Latitude
Unknown
Longitude
Unknown
Altitude
Unknown
Speed
Unknown
Apparent Right ascension
Unknown
Apparent Declination
Unknown
Sunlit
N/A
Visualization observer readout
Local Sidereal Time
15:44:46
Azimuth
Unknown
Elevation
Unknown
Doppler factor
Unknown
Orbital elements
Apogee altitude
1,417.459 km
Perigee altitude
1,407.108 km
Semi-major axis
7,790.42 km
Eccentricity
0.00066
Inclination
82.5642°
RAAN
103.728°
Arg. of periapsis
342.6231°
True anomaly
171.49726°
Mean anomaly
171.486°
Eccentric anomaly
171.49163°
Mean motion
3.15647 °/min
Orbital period
114.05 mins
BSTAR
-0.0000131
Loading maneuver chart data...
Computing Atmospheric mass density...
Loading historical data...
Loading historical data...
Loading historical data...
Loading historical data...
Loading historical data...
Loading historical data...
Loading historical data...

Documentation

Showing up to 5 results
|